Weather History for Naples, FL

Change the Weather History Date:

Tuesday, March 27, 2012

  Actual Average Record
Temperature  
Mean Temperature 73 °F 71 °F  
Max Temperature 86 °F 81 °F 90 °F (2002)
Min Temperature 60 °F 61 °F 43 °F (1979)
Degree Days  
Heating Degree Days 0 0  
Month to date heating degree days 2 19  
Since 1 July heating degree days 121 252  
Cooling Degree Days 8 6  
Month to date cooling degree days 235 147  
Year to date cooling degree days 509 338  
Growing Degree Days 22 (Base 50)    
Moisture  
Dew Point 61 °F    
Average Humidity 64    
Maximum Humidity 84    
Minimum Humidity 44    
Precipitation  
Precipitation T in 0.08 in 1.24 in (1987)
Month to date precipitation 1.00 1.99  
Year to date precipitation 4.38 5.94  
Snow  
Snow 0.00 in - - ()
Month to date snowfall 0.0  
Since 1 July snowfall 0.0  
Snow Depth 0.00 in    
Sea Level Pressure  
Sea Level Pressure 30.08 in    
Wind  
Wind Speed 7 mph (NE)    
Max Wind Speed 15 mph    
Max Gust Speed 20 mph    
Visibility 10 miles    
Events      
T = Trace of Precipitation, MM = Missing Value Source: NWS Daily Summary

Daily Weather History Graph

Daily Weather History Graph

Search for Another Location

Airport:

Trip Planner

Search our weather history database for the weather conditions in past years. The results will help you decide how hot, cold, wet, or windy it might be!

Date:

Astronomy

Mar. 27, 2012 Rise Set
Actual Time 7:22 AM EDT 7:41 PM EDT
Civil Twilight 6:59 AM EDT 8:05 PM EDT
Nautical Twilight 6:32 AM EDT 8:32 PM EDT
Astronomical Twilight 6:05 AM EDT 8:59 PM EDT
Moon 10:20 AM EDT (3/27) No Moon Set
Length of Visible Light 13h 05m
Length of Day
12h 18m
Waxing Crescent, 22% of the Moon is Illuminated
Mar 27
Waxing Crescent
Mar 30
First Quarter
Apr 6
Full
Apr 13
Last Quarter
Apr 21
New

Hourly Weather History & Observations

Time (EDT) Temp. Heat Index Dew Point Humidity Pressure Visibility Wind Dir Wind Speed Gust Speed Precip Events Conditions
12:53 AM 64.9 °F - 55.9 °F 73% 30.01 in 10.0 mi NE 5.8 mph - N/A   Clear
1:53 AM 64.0 °F - 55.9 °F 75% 30.01 in 10.0 mi NE 5.8 mph - N/A   Clear
2:53 AM 63.0 °F - 57.0 °F 81% 30.01 in 10.0 mi NE 5.8 mph - N/A   Clear
3:53 AM 62.1 °F - 55.9 °F 80% 30.01 in 10.0 mi ENE 3.5 mph - N/A   Clear
4:53 AM 62.1 °F - 57.0 °F 84% 30.01 in 10.0 mi Calm Calm - N/A   Clear
5:53 AM 62.1 °F - 57.0 °F 84% 30.02 in 10.0 mi ENE 3.5 mph - N/A   Clear
6:53 AM 60.1 °F - 55.9 °F 86% 30.04 in 10.0 mi ENE 5.8 mph - N/A   Clear
7:53 AM 61.0 °F - 55.9 °F 83% 30.06 in 9.0 mi NE 4.6 mph - N/A   Clear
8:53 AM 68.0 °F - 61.0 °F 78% 30.08 in 10.0 mi NE 8.1 mph - N/A   Clear
9:53 AM 73.0 °F - 64.0 °F 73% 30.10 in 10.0 mi ENE 11.5 mph - N/A   Clear
10:53 AM 77.0 °F - 64.0 °F 64% 30.11 in 10.0 mi East 10.4 mph - N/A   Clear
11:53 AM 78.1 °F - 62.1 °F 58% 30.12 in 10.0 mi East 11.5 mph - N/A   Mostly Cloudy
12:53 PM 82.0 °F 83.0 °F 62.1 °F 51% 30.11 in 10.0 mi ESE 12.7 mph 18.4 mph N/A   Mostly Cloudy
1:53 PM 82.9 °F 83.3 °F 61.0 °F 47% 30.09 in 10.0 mi Variable 5.8 mph - N/A   Scattered Clouds
2:53 PM 84.9 °F 85.0 °F 61.0 °F 44% 30.08 in 10.0 mi ENE 6.9 mph - N/A   Mostly Cloudy
3:53 PM 79.0 °F - 64.9 °F 62% 30.07 in 10.0 mi WSW 10.4 mph - N/A   Mostly Cloudy
4:53 PM 78.1 °F - 64.9 °F 64% 30.06 in 10.0 mi WSW 9.2 mph - N/A   Mostly Cloudy
5:53 PM 78.1 °F - 64.9 °F 64% 30.07 in 10.0 mi WNW 8.1 mph - N/A   Mostly Cloudy
6:53 PM 75.0 °F - 66.0 °F 73% 30.09 in 7.0 mi NW 4.6 mph - 0.00 in   Mostly Cloudy
7:53 PM 75.0 °F - 66.9 °F 76% 30.10 in 10.0 mi NW 3.5 mph - N/A   Mostly Cloudy
8:53 PM 73.9 °F - 68.0 °F 82% 30.12 in 10.0 mi Calm Calm - N/A   Clear
9:53 PM 73.0 °F - 57.0 °F 57% 30.14 in 10.0 mi East 10.4 mph - N/A   Clear
10:53 PM 71.1 °F - 57.9 °F 63% 30.15 in 10.0 mi East 11.5 mph - N/A   Clear
11:53 PM 69.1 °F - 57.9 °F 68% 30.15 in 10.0 mi East 10.4 mph - N/A   Clear